Date String (YYYY-MM-DD hh:mm:ss) UTC,Instrument flags,absolute air pressure of the measurement (hPa),sample flow rate (lpm),inlet stack bypass flow (lpm),air temperature of the measurement (°C),ambient temperature measured by the external sensor (°C),aerosol sample conditioner tube jacket temperature (°C),OPC LED temperature (°C),internal box temperature (°C),relative humidity of the measurement (%),span deviation,mass concentration of particles derived from Lorenz-Mie calculation of OPC scattering (μg/m³),mass concentration of particles derived from Lorenz-Mie calculation of OPC scattering (μg/m³),mass concentration of particles derived from Lorenz-Mie calculation of OPC scattering (μg/m³)
DateTimeUTC,F1_M11,P_M11,Q1_M11,Q2_M11,T1_M11,T2_M11,T3_M11,T4_M11,T5_M11,U1_M11,ZSPAN_M11,X2_M11,X0_M11,X1_M11
2023-09-10 01:00:00,SystemResetWarning,0835.3,5.00,000.00,027.9,027.0,000.0,036.1,029.7,17.8,0001.3,0005.32,0017.20,0004.37
2023-09-10 01:01:00,SystemResetWarning,0835.3,4.98,000.00,028.0,025.8,000.0,036.0,029.6,17.8,0001.2,0005.28,0016.90,0004.36
2023-09-10 01:02:00,SystemResetWarning,0835.2,5.02,000.00,027.9,024.2,000.0,036.0,029.2,17.9,0001.1,0005.29,0017.92,0004.33
2023-09-10 01:03:00,SystemResetWarning,0835.2,5.01,000.00,027.8,024.0,000.0,035.9,029.2,17.9,0001.1,0005.29,0017.96,0004.34
2023-09-10 01:04:00,SystemResetWarning,0835.2,5.00,000.00,027.7,024.3,000.0,035.9,029.1,18.0,0001.5,0005.34,0018.62,0004.35
2023-09-10 01:05:00,SystemResetWarning,0835.2,5.00,000.00,027.7,024.7,000.0,035.9,029.1,18.0,0001.3,0005.36,0019.20,0004.35
2023-09-10 01:06:00,SystemResetWarning,0835.2,5.01,000.00,027.7,025.2,000.0,036.0,029.2,18.1,0001.6,0005.34,0019.10,0004.35
2023-09-10 01:07:00,SystemResetWarning,0835.3,5.00,000.00,027.7,025.6,000.0,036.0,029.3,18.1,0002.0,0005.32,0019.27,0004.34
2023-09-10 01:08:00,SystemResetWarning,0835.3,5.00,000.00,027.7,026.0,000.0,036.0,029.4,18.0,0002.0,0005.33,0018.46,0004.35
2023-09-10 01:09:00,SystemResetWarning,0835.4,5.00,000.00,027.8,026.3,000.0,036.0,029.5,18.1,0001.7,0005.43,0018.20,0004.37
2023-09-10 01:10:00,SystemResetWarning,0835.3,4.99,000.00,027.8,026.6,000.0,036.1,029.6,18.4,0001.6,0005.51,0017.90,0004.38
2023-09-10 01:11:00,SystemResetWarning,0835.4,5.00,000.00,027.9,026.8,000.0,036.1,029.7,18.4,0001.6,0005.51,0017.32,0004.38
2023-09-10 01:12:00,SystemResetWarning,0835.5,4.99,000.00,028.0,027.0,000.0,036.1,029.7,18.4,0001.6,0005.58,0017.61,0004.39
2023-09-10 01:13:00,SystemResetWarning,0835.5,5.00,000.00,028.0,026.4,000.0,036.1,029.7,18.4,0001.6,0005.61,0017.67,0004.40
2023-09-10 01:14:00,SystemResetWarning,0835.5,5.00,000.00,027.9,024.6,000.0,036.0,029.3,18.4,0001.8,0005.64,0018.55,0004.38
2023-09-10 01:15:00,SystemResetWarning,0835.5,5.01,000.00,027.8,023.9,000.0,036.0,029.1,18.5,0001.8,0005.57,0017.16,0004.37
2023-09-10 01:16:00,SystemResetWarning,0835.5,5.01,000.00,027.8,024.1,000.0,036.0,029.1,18.5,0002.0,0005.54,0016.50,0004.35
2023-09-10 01:17:00,SystemResetWarning,0835.5,4.99,000.00,027.7,024.5,000.0,036.0,029.1,18.5,0001.9,0005.49,0017.05,0004.34
2023-09-10 01:18:00,SystemResetWarning,0835.5,5.00,000.00,027.7,025.0,000.0,036.0,029.1,18.4,0001.5,0005.48,0017.78,0004.33
2023-09-10 01:19:00,SystemResetWarning,0835.6,5.01,000.00,027.7,025.4,000.0,036.0,029.2,18.4,0001.5,0005.49,0018.35,0004.33
2023-09-10 01:20:00,SystemResetWarning,0835.5,4.99,000.00,027.7,025.8,000.0,036.0,029.3,18.4,0001.5,0005.44,0018.02,0004.32
2023-09-10 01:21:00,SystemResetWarning,0835.6,4.99,000.00,027.8,026.2,000.0,036.0,029.4,18.5,0001.5,0005.35,0017.15,0004.30
2023-09-10 01:22:00,SystemResetWarning,0835.5,5.00,000.00,027.8,026.4,000.0,036.1,029.5,18.9,0001.6,0005.31,0017.31,0004.30
2023-09-10 01:23:00,SystemResetWarning,0835.6,5.00,000.00,027.9,026.7,000.0,036.1,029.6,19.2,0001.6,0005.27,0018.18,0004.30
2023-09-10 01:24:00,SystemResetWarning,0835.5,5.00,000.00,027.9,026.9,000.0,036.1,029.7,19.4,0001.2,0005.26,0017.90,0004.29
2023-09-10 01:25:00,SystemResetWarning,0835.5,5.00,000.00,028.0,027.1,000.0,036.2,029.7,19.2,0001.2,0005.22,0017.71,0004.30
2023-09-10 01:26:00,SystemResetWarning,0835.5,4.99,000.00,028.0,026.0,000.0,036.1,029.6,18.9,0000.8,0005.28,0017.60,0004.31
2023-09-10 01:27:00,SystemResetWarning,0835.5,5.01,000.00,027.9,024.8,000.0,036.0,029.4,18.8,0000.5,0005.37,0017.93,0004.33
2023-09-10 01:28:00,SystemResetWarning,0835.5,5.01,000.00,027.9,024.8,000.0,036.0,029.4,18.9,0000.5,0005.42,0017.45,0004.36
2023-09-10 01:29:00,SystemResetWarning,0835.5,4.99,000.00,027.8,025.1,000.0,036.0,029.3,18.8,0000.3,0005.43,0016.98,0004.37
2023-09-10 01:30:00,SystemResetWarning,0835.5,4.99,000.00,027.8,025.5,000.0,036.1,029.3,18.9,0000.6,0005.46,0015.93,0004.39
2023-09-10 01:31:00,SystemResetWarning,0835.5,5.00,000.00,027.8,025.8,000.0,036.1,029.4,18.9,0001.0,0005.48,0015.86,0004.40
2023-09-10 01:32:00,SystemResetWarning,0835.5,5.01,000.00,027.9,026.2,000.0,036.1,029.5,18.7,0001.7,0005.52,0016.12,0004.42
2023-09-10 01:33:00,SystemResetWarning,0835.6,5.00,000.00,027.9,026.5,000.0,036.2,029.6,18.5,0001.7,0005.58,0016.63,0004.43
2023-09-10 01:34:00,SystemResetWarning,0835.7,5.01,000.00,028.0,026.7,000.0,036.2,029.7,18.4,0001.7,0005.63,0016.92,0004.43
2023-09-10 01:35:00,SystemResetWarning,0835.6,4.98,000.00,028.0,026.7,000.0,036.2,029.7,18.5,0001.8,0005.66,0017.47,0004.44
2023-09-10 01:36:00,SystemResetWarning,0835.5,5.00,000.00,028.0,025.1,000.0,036.1,029.4,18.9,0001.6,0005.70,0016.50,0004.45
2023-09-10 01:37:00,SystemResetWarning,0835.5,5.00,000.00,027.9,023.9,000.0,036.1,029.1,18.9,0001.6,0005.67,0015.57,0004.46
2023-09-10 01:38:00,SystemResetWarning,0835.5,5.01,000.00,027.8,023.9,000.0,036.0,029.1,18.7,0001.8,0005.62,0015.77,0004.45
2023-09-10 01:39:00,SystemResetWarning,0835.5,5.01,000.00,027.7,024.3,000.0,036.0,029.0,19.0,0001.7,0005.63,0015.76,0004.44
2023-09-10 01:40:00,SystemResetWarning,0835.5,5.00,000.00,027.7,024.7,000.0,036.0,029.1,19.1,0001.9,0005.68,0016.75,0004.45
2023-09-10 01:41:00,SystemResetWarning,0835.7,5.00,000.00,027.7,025.2,000.0,036.0,029.2,19.8,0001.3,0005.70,0016.91,0004.46
2023-09-10 01:42:00,SystemResetWarning,0835.6,4.99,000.00,027.7,025.6,000.0,036.0,029.3,20.2,0001.6,0005.69,0016.99,0004.46
2023-09-10 01:43:00,SystemResetWarning,0835.6,4.99,000.00,027.7,025.9,000.0,036.1,029.4,20.5,0001.1,0005.63,0017.30,0004.45
2023-09-10 01:44:00,SystemResetWarning,0835.6,5.00,000.00,027.8,026.3,000.0,036.1,029.4,20.2,0001.3,0005.61,0016.93,0004.45
2023-09-10 01:45:00,SystemResetWarning,0835.7,5.00,000.00,027.8,026.5,000.0,036.1,029.5,19.9,0001.5,0005.55,0016.12,0004.45
2023-09-10 01:46:00,SystemResetWarning,0835.6,5.01,000.00,027.9,026.8,000.0,036.1,029.6,19.8,0001.6,0005.59,0015.96,0004.45
2023-09-10 01:47:00,SystemResetWarning,0835.8,4.99,000.00,027.9,026.9,000.0,036.2,029.7,19.9,0002.5,0005.56,0016.01,0004.45
2023-09-10 01:48:00,SystemResetWarning,0835.7,5.00,000.00,028.0,027.1,000.0,036.2,029.7,20.2,0002.4,0005.60,0016.91,0004.46
2023-09-10 01:49:00,SystemResetWarning,0835.7,4.99,000.00,028.0,026.8,000.0,036.2,029.8,20.0,0002.6,0005.62,0016.98,0004.48
2023-09-10 01:50:00,SystemResetWarning,0835.7,5.00,000.00,028.0,025.0,000.0,036.1,029.4,19.9,0002.8,0005.66,0016.53,0004.49
2023-09-10 01:51:00,SystemResetWarning,0835.6,5.01,000.00,027.9,023.9,000.0,036.0,029.2,20.0,0003.0,0005.68,0015.85,0004.49
2023-09-10 01:52:00,SystemResetWarning,0835.6,5.02,000.00,027.8,024.0,000.0,036.0,029.1,20.0,0003.0,0005.68,0015.92,0004.49
2023-09-10 01:53:00,SystemResetWarning,0835.6,5.00,000.00,027.7,024.3,000.0,036.0,029.0,20.2,0002.9,0005.71,0016.43,0004.48
2023-09-10 01:54:00,SystemResetWarning,0835.7,5.00,000.00,027.7,024.8,000.0,036.0,029.1,19.9,0002.6,0005.72,0016.54,0004.49
2023-09-10 01:55:00,SystemResetWarning,0835.7,5.00,000.00,027.7,025.2,000.0,036.0,029.2,19.9,0002.5,0005.76,0017.09,0004.49
2023-09-10 01:56:00,SystemResetWarning,0835.7,5.01,000.00,027.7,025.6,000.0,036.0,029.3,19.8,0002.4,0005.77,0017.93,0004.49
2023-09-10 01:57:00,SystemResetWarning,0835.8,4.99,000.00,027.7,026.0,000.0,036.1,029.4,19.7,0002.3,0005.70,0016.93,0004.49
2023-09-10 01:58:00,SystemResetWarning,0835.8,4.99,000.00,027.8,026.3,000.0,036.1,029.4,19.6,0002.0,0005.67,0016.81,0004.47
2023-09-10 01:59:00,SystemResetWarning,0835.8,5.00,000.00,027.8,026.5,000.0,036.1,029.5,19.6,0002.3,0005.64,0016.35,0004.47
